Time,TemperatureF,DewpointF,PressureIn,WindDirection,WindDirectionDegrees,WindSpeedMPH,WindSpeedGustMPH,Humidity,HourlyPrecipIn,Conditions,Clouds,dailyrainin,SoftwareType,DateUTC
2013-02-12 00:02:00,33.7,32.0,30.23,SSW,207,0.0,0.0,92,0.00,,,0.00,weatherlink.com 1.10,2013-02-12 08:02:00,
2013-02-12 00:17:00,33.2,31.0,30.24,SSW,207,0.0,0.0,92,0.00,,,0.00,weatherlink.com 1.10,2013-02-12 08:17:00,
2013-02-12 00:32:00,32.8,31.0,30.25,SSW,207,0.0,0.0,91,0.00,,,0.00,weatherlink.com 1.10,2013-02-12 08:32:00,
2013-02-12 00:47:00,32.3,30.0,30.24,SSW,207,0.0,0.0,92,0.00,,,0.00,weatherlink.com 1.10,2013-02-12 08:47:00,
2013-02-12 01:02:00,32.7,31.0,30.24,SSW,207,0.0,1.0,92,0.00,,,0.00,weatherlink.com 1.10,2013-02-12 09:02:00,
2013-02-12 01:17:00,32.7,31.0,30.24,SSW,207,0.0,0.0,92,0.00,,,0.00,weatherlink.com 1.10,2013-02-12 09:17:00,
2013-02-12 01:32:00,32.3,30.0,30.24,SSW,207,0.0,1.0,92,0.00,,,0.00,weatherlink.com 1.10,2013-02-12 09:32:00,
2013-02-12 01:47:00,32.5,31.0,30.25,SSW,207,0.0,0.0,93,0.00,,,0.00,weatherlink.com 1.10,2013-02-12 09:47:00,
2013-02-12 02:02:00,33.0,31.0,30.25,SSW,207,0.0,0.0,93,0.00,,,0.00,weatherlink.com 1.10,2013-02-12 10:02:00,
2013-02-12 02:17:00,33.3,32.0,30.25,SSW,207,0.0,0.0,93,0.00,,,0.00,weatherlink.com 1.10,2013-02-12 10:17:00,
2013-02-12 02:32:00,33.7,32.0,30.26,SSW,207,0.0,0.0,93,0.00,,,0.00,weatherlink.com 1.10,2013-02-12 10:32:00,
2013-02-12 02:47:00,34.8,33.0,30.25,SSW,207,0.0,1.0,94,0.00,,,0.00,weatherlink.com 1.10,2013-02-12 10:47:00,
2013-02-12 03:02:00,34.1,32.0,30.25,SSW,207,0.0,0.0,93,0.00,,,0.00,weatherlink.com 1.10,2013-02-12 11:02:00,
2013-02-12 03:17:00,33.8,32.0,30.24,SSW,207,0.0,0.0,93,0.00,,,0.00,weatherlink.com 1.10,2013-02-12 11:17:00,
2013-02-12 03:32:00,33.4,32.0,30.25,SSW,207,0.0,1.0,93,0.00,,,0.00,weatherlink.com 1.10,2013-02-12 11:32:00,
2013-02-12 03:47:00,33.4,32.0,30.25,SSW,207,0.0,0.0,93,0.00,,,0.00,weatherlink.com 1.10,2013-02-12 11:47:00,
2013-02-12 04:02:00,33.2,31.0,30.26,SSW,207,0.0,0.0,93,0.00,,,0.00,weatherlink.com 1.10,2013-02-12 12:02:00,
2013-02-12 04:17:00,33.0,31.0,30.26,SSW,207,0.0,0.0,93,0.00,,,0.00,weatherlink.com 1.10,2013-02-12 12:17:00,
2013-02-12 04:32:00,33.1,31.0,30.26,SSW,207,0.0,0.0,93,0.00,,,0.00,weatherlink.com 1.10,2013-02-12 12:32:00,
2013-02-12 04:47:00,33.0,31.0,30.27,SSW,207,0.0,1.0,93,0.00,,,0.00,weatherlink.com 1.10,2013-02-12 12:47:00,
2013-02-12 05:02:00,32.8,31.0,30.28,SSW,207,1.0,2.0,93,0.00,,,0.00,weatherlink.com 1.10,2013-02-12 13:02:00,
2013-02-12 05:17:00,32.9,31.0,30.28,SSW,207,0.0,0.0,94,0.00,,,0.00,weatherlink.com 1.10,2013-02-12 13:17:00,
2013-02-12 05:32:00,32.9,31.0,30.29,SSW,207,0.0,0.0,93,0.00,,,0.00,weatherlink.com 1.10,2013-02-12 13:32:00,
2013-02-12 05:47:00,32.6,31.0,30.29,SSW,207,1.0,2.0,93,0.00,,,0.00,weatherlink.com 1.10,2013-02-12 13:47:00,
2013-02-12 06:02:00,32.2,30.0,30.30,SSW,207,0.0,2.0,93,0.00,,,0.00,weatherlink.com 1.10,2013-02-12 14:02:00,
2013-02-12 06:17:00,31.7,30.0,30.30,SSW,207,0.0,0.0,93,0.00,,,0.00,weatherlink.com 1.10,2013-02-12 14:17:00,
2013-02-12 06:32:00,31.4,30.0,30.30,SSW,207,0.0,0.0,93,0.00,,,0.00,weatherlink.com 1.10,2013-02-12 14:32:00,
2013-02-12 06:47:00,31.2,29.0,30.31,SSW,207,0.0,1.0,93,0.00,,,0.00,weatherlink.com 1.10,2013-02-12 14:47:00,
2013-02-12 07:02:00,31.0,29.0,30.32,SSW,207,0.0,1.0,93,0.00,,,0.00,weatherlink.com 1.10,2013-02-12 15:02:00,
2013-02-12 07:17:00,30.8,29.0,30.33,SSW,207,0.0,1.0,93,0.00,,,0.00,weatherlink.com 1.10,2013-02-12 15:17:00,
2013-02-12 07:32:00,30.3,29.0,30.34,SSW,207,0.0,0.0,93,0.00,,,0.00,weatherlink.com 1.10,2013-02-12 15:32:00,
2013-02-12 07:47:00,31.2,30.0,30.34,SSW,207,0.0,2.0,94,0.00,,,0.00,weatherlink.com 1.10,2013-02-12 15:47:00,
2013-02-12 08:03:00,32.8,31.0,30.34,SSW,207,1.0,1.0,94,0.00,,,0.00,weatherlink.com 1.10,2013-02-12 16:03:00,
2013-02-12 08:18:00,34.8,33.0,30.35,SSW,207,0.0,1.0,94,0.00,,,0.00,weatherlink.com 1.10,2013-02-12 16:18:00,
2013-02-12 08:33:00,36.7,35.0,30.35,SSW,207,1.0,2.0,94,0.00,,,0.00,weatherlink.com 1.10,2013-02-12 16:33:00,
2013-02-12 08:48:00,38.4,37.0,30.35,SSW,207,0.0,2.0,94,0.00,,,0.00,weatherlink.com 1.10,2013-02-12 16:48:00,
2013-02-12 09:03:00,39.9,38.0,30.36,SE,131,1.0,3.0,94,0.01,,,0.01,weatherlink.com 1.10,2013-02-12 17:03:00,
2013-02-12 09:18:00,41.8,40.0,30.36,SE,132,0.0,2.0,93,0.01,,,0.01,weatherlink.com 1.10,2013-02-12 17:18:00,
2013-02-12 09:33:00,43.8,41.0,30.36,SE,131,0.0,1.0,91,0.01,,,0.01,weatherlink.com 1.10,2013-02-12 17:33:00,
2013-02-12 09:48:00,44.3,41.0,30.36,NW,319,2.0,3.0,88,0.01,,,0.01,weatherlink.com 1.10,2013-02-12 17:48:00,
2013-02-12 10:03:00,45.9,42.0,30.36,South,180,0.0,3.0,86,0.00,,,0.01,weatherlink.com 1.10,2013-02-12 18:03:00,
2013-02-12 10:18:00,48.3,42.0,30.36,SE,130,2.0,3.0,80,0.00,,,0.01,weatherlink.com 1.10,2013-02-12 18:18:00,
2013-02-12 10:33:00,49.6,42.0,30.36,SSE,163,2.0,3.0,76,0.00,,,0.01,weatherlink.com 1.10,2013-02-12 18:33:00,
2013-02-12 10:48:00,50.8,44.0,30.36,SE,137,2.0,4.0,76,0.00,,,0.01,weatherlink.com 1.10,2013-02-12 18:48:00,
2013-02-12 11:03:00,51.8,43.0,30.36,East,90,0.0,7.0,72,0.00,,,0.01,weatherlink.com 1.10,2013-02-12 19:03:00,
2013-02-12 11:18:00,52.9,43.0,30.36,SE,146,4.0,5.0,69,0.00,,,0.01,weatherlink.com 1.10,2013-02-12 19:18:00,
2013-02-12 11:33:00,53.9,43.0,30.36,South,179,4.0,4.0,67,0.00,,,0.01,weatherlink.com 1.10,2013-02-12 19:33:00,
2013-02-12 11:48:00,55.0,43.0,30.35,SSE,161,2.0,4.0,64,0.00,,,0.01,weatherlink.com 1.10,2013-02-12 19:48:00,
2013-02-12 12:03:00,55.9,42.0,30.35,SSE,159,3.0,7.0,61,0.00,,,0.01,weatherlink.com 1.10,2013-02-12 20:03:00,
2013-02-12 12:19:00,57.1,43.0,30.34,SE,128,3.0,6.0,59,0.00,,,0.01,weatherlink.com 1.10,2013-02-12 20:19:00,
2013-02-12 12:34:00,58.5,44.0,30.34,SSE,148,4.0,7.0,60,0.00,,,0.01,weatherlink.com 1.10,2013-02-12 20:34:00,
2013-02-12 12:49:00,59.4,45.0,30.33,SE,140,2.0,7.0,59,0.00,,,0.01,weatherlink.com 1.10,2013-02-12 20:49:00,
2013-02-12 13:04:00,60.2,44.0,30.33,SW,215,1.0,6.0,55,0.00,,,0.01,weatherlink.com 1.10,2013-02-12 21:04:00,
2013-02-12 13:19:00,60.5,44.0,30.33,SSE,147,0.0,7.0,54,0.00,,,0.01,weatherlink.com 1.10,2013-02-12 21:19:00,
2013-02-12 13:34:00,60.8,43.0,30.32,South,182,6.0,6.0,52,0.00,,,0.01,weatherlink.com 1.10,2013-02-12 21:34:00,
2013-02-12 13:49:00,61.0,41.0,30.32,SE,136,4.0,6.0,49,0.00,,,0.01,weatherlink.com 1.10,2013-02-12 21:49:00,
2013-02-12 14:04:00,61.1,40.0,30.31,SSE,166,3.0,8.0,46,0.00,,,0.01,weatherlink.com 1.10,2013-02-12 22:04:00,
2013-02-12 14:19:00,61.3,41.0,30.31,SSE,160,2.0,7.0,47,0.00,,,0.01,weatherlink.com 1.10,2013-02-12 22:19:00,
2013-02-12 14:34:00,61.5,42.0,30.30,SE,134,1.0,8.0,49,0.00,,,0.01,weatherlink.com 1.10,2013-02-12 22:34:00,
2013-02-12 14:49:00,61.6,42.0,30.30,South,175,3.0,8.0,49,0.00,,,0.01,weatherlink.com 1.10,2013-02-12 22:49:00,
2013-02-12 15:04:00,61.6,43.0,30.30,South,185,4.0,9.0,50,0.00,,,0.01,weatherlink.com 1.10,2013-02-12 23:04:00,
2013-02-12 15:19:00,61.1,44.0,30.30,SSE,148,6.0,10.0,53,0.00,,,0.01,weatherlink.com 1.10,2013-02-12 23:19:00,
2013-02-12 15:34:00,61.0,44.0,30.30,SE,139,6.0,8.0,53,0.00,,,0.01,weatherlink.com 1.10,2013-02-12 23:34:00,
2013-02-12 15:49:00,60.3,43.0,30.30,South,175,3.0,9.0,53,0.00,,,0.01,weatherlink.com 1.10,2013-02-12 23:49:00,
2013-02-12 16:04:00,60.0,43.0,30.30,South,190,8.0,10.0,53,0.00,,,0.01,weatherlink.com 1.10,2013-02-13 00:04:00,
2013-02-12 16:19:00,59.5,43.0,30.30,South,175,4.0,8.0,55,0.00,,,0.01,weatherlink.com 1.10,2013-02-13 00:19:00,
2013-02-12 16:34:00,59.5,44.0,30.30,West,277,0.0,9.0,57,0.00,,,0.01,weatherlink.com 1.10,2013-02-13 00:34:00,
2013-02-12 16:49:00,59.3,42.0,30.30,SW,214,1.0,5.0,53,0.00,,,0.01,weatherlink.com 1.10,2013-02-13 00:49:00,
2013-02-12 17:04:00,58.3,41.0,30.30,SW,225,0.0,3.0,54,0.00,,,0.01,weatherlink.com 1.10,2013-02-13 01:04:00,
2013-02-12 17:19:00,57.1,41.0,30.30,SW,217,1.0,5.0,55,0.00,,,0.01,weatherlink.com 1.10,2013-02-13 01:19:00,
2013-02-12 17:34:00,55.9,41.0,30.30,South,180,1.0,2.0,58,0.00,,,0.01,weatherlink.com 1.10,2013-02-13 01:34:00,
2013-02-12 17:49:00,54.7,40.0,30.30,South,180,0.0,3.0,57,0.00,,,0.01,weatherlink.com 1.10,2013-02-13 01:49:00,
2013-02-12 18:04:00,53.6,39.0,30.30,South,180,1.0,1.0,59,0.00,,,0.01,weatherlink.com 1.10,2013-02-13 02:04:00,
2013-02-12 18:19:00,51.9,40.0,30.30,South,180,0.0,1.0,63,0.00,,,0.01,weatherlink.com 1.10,2013-02-13 02:19:00,
2013-02-12 18:34:00,49.5,39.0,30.30,South,180,0.0,0.0,67,0.00,,,0.01,weatherlink.com 1.10,2013-02-13 02:34:00,
2013-02-12 18:49:00,47.3,39.0,30.31,South,180,0.0,0.0,73,0.00,,,0.01,weatherlink.com 1.10,2013-02-13 02:49:00,
2013-02-12 19:04:00,45.2,38.0,30.30,South,180,0.0,1.0,77,0.00,,,0.01,weatherlink.com 1.10,2013-02-13 03:04:00,
2013-02-12 19:19:00,44.3,39.0,30.30,South,180,0.0,1.0,81,0.00,,,0.01,weatherlink.com 1.10,2013-02-13 03:19:00,
2013-02-12 19:34:00,43.2,38.0,30.30,South,180,0.0,0.0,82,0.00,,,0.01,weatherlink.com 1.10,2013-02-13 03:34:00,
2013-02-12 19:49:00,42.2,37.0,30.31,WNW,290,0.0,3.0,82,0.00,,,0.01,weatherlink.com 1.10,2013-02-13 03:49:00,
2013-02-12 20:04:00,41.3,37.0,30.32,WNW,290,0.0,0.0,85,0.00,,,0.01,weatherlink.com 1.10,2013-02-13 04:04:00,
2013-02-12 20:19:00,40.4,36.0,30.32,WNW,290,0.0,0.0,85,0.00,,,0.01,weatherlink.com 1.10,2013-02-13 04:19:00,
2013-02-12 20:34:00,39.8,37.0,30.32,WNW,290,0.0,0.0,88,0.00,,,0.01,weatherlink.com 1.10,2013-02-13 04:34:00,
2013-02-12 20:49:00,39.1,36.0,30.32,WNW,290,0.0,1.0,88,0.00,,,0.01,weatherlink.com 1.10,2013-02-13 04:49:00,
2013-02-12 21:04:00,38.8,36.0,30.32,WNW,290,0.0,0.0,88,0.00,,,0.01,weatherlink.com 1.10,2013-02-13 05:04:00,
2013-02-12 21:19:00,37.9,35.0,30.33,WNW,290,0.0,2.0,88,0.00,,,0.01,weatherlink.com 1.10,2013-02-13 05:19:00,
2013-02-12 21:34:00,37.8,35.0,30.33,WNW,290,0.0,2.0,90,0.00,,,0.01,weatherlink.com 1.10,2013-02-13 05:34:00,
2013-02-12 21:49:00,37.1,34.0,30.33,WNW,290,0.0,0.0,89,0.00,,,0.01,weatherlink.com 1.10,2013-02-13 05:49:00,
2013-02-12 22:04:00,36.8,34.0,30.33,WNW,290,0.0,0.0,90,0.00,,,0.01,weatherlink.com 1.10,2013-02-13 06:04:00,
2013-02-12 22:19:00,36.0,33.0,30.33,WNW,290,0.0,0.0,89,0.00,,,0.01,weatherlink.com 1.10,2013-02-13 06:19:00,
2013-02-12 22:34:00,35.7,33.0,30.33,WNW,290,0.0,0.0,91,0.00,,,0.01,weatherlink.com 1.10,2013-02-13 06:34:00,
2013-02-12 22:49:00,35.4,33.0,30.33,WNW,290,1.0,1.0,91,0.00,,,0.01,weatherlink.com 1.10,2013-02-13 06:49:00,
2013-02-12 23:04:00,35.3,33.0,30.33,WNW,290,0.0,1.0,91,0.00,,,0.01,weatherlink.com 1.10,2013-02-13 07:04:00,
2013-02-12 23:19:00,35.2,33.0,30.33,WNW,290,0.0,1.0,91,0.00,,,0.01,weatherlink.com 1.10,2013-02-13 07:19:00,
2013-02-12 23:34:00,34.7,32.0,30.33,WNW,290,0.0,0.0,91,0.00,,,0.01,weatherlink.com 1.10,2013-02-13 07:34:00,
2013-02-12 23:49:00,34.2,32.0,30.34,WNW,290,0.0,0.0,91,0.00,,,0.01,weatherlink.com 1.10,2013-02-13 07:49:00,